Regional Weather Roundup
Issued by NWS

Home | Current Version | Previous Version | Graphics & Text | Print | Product List | Glossary On
Versions: 1 2 3 4 5 6 7 8 9 10 11 12 13 14 15 16 17 18 19 20 21 22 23 24 25 26 27 28 29 30 31 32 33 34 35 36 37 38 39 40 41 42 43 44 45 46 47 48 49 50
000
ASUS43 KDTX 241401
RWRMI
MICHIGAN HOURLY REGIONAL WEATHER ROUNDUP
NATIONAL WEATHER SERVICE DETROIT/PONTIAC MI
1000 AM EDT FRI MAR 24 2017

NOTE: "FAIR" INDICATES FEW OR NO CLOUDS BELOW 12,000 FEET WITH NO
SIGNIFICANT WEATHER AND/OR OBSTRUCTION TO VISIBILITY.

MIZ047>049-052>055-059>063-066>070-074>076-081>083-241500-
SOUTHEAST LOWER MICHIGAN

CITY           SKY/WX    TMP DP  RH WIND       PRES   REMARKS
ADRIAN         CLOUDY    52  44  74 SW18G25   30.02F
ALMA           CLOUDY    43  41  91 SE3       29.96S
ANN ARBOR      CLOUDY    51  43  74 S16       30.00S
BAD AXE        MOSUNNY   44  38  81 S7        29.94F
CARO           CLOUDY    49  39  69 S6        29.95S
DETROIT CITY   MOSUNNY   54  44  69 SW15G24   29.99F
DETROIT        CLOUDY    55  44  66 SW23G29   30.01S
FLINT          CLOUDY    52  42  69 W9        29.97R
GROSSE ILE     CLOUDY    54  44  68 SW15G21   29.99F
HILLSDALE      CLOUDY    50  43  76 S10G18    30.01S
HOWELL         CLOUDY    55  43  63 SW15G22   29.96S

CITY           SKY/WX    TMP DP  RH WIND       PRES   REMARKS
JACKSON        MOSUNNY   55  44  66 SW17      29.98F
LAMBERTVILLE   CLOUDY    58  45  62 SW16G26   30.02S
LANSING        PTSUNNY   54  42  64 SW20G25   29.96R
LAPEER         FAIR      54  42  63 W8        29.97R
MASON          CLOUDY    54  46  73 SW8       29.96S
MONROE         CLOUDY    56  46  70 SW16G24   30.00F
MT. CLEMENS    CLOUDY    51  43  73 SW13G20   29.97S
PONTIAC        CLOUDY    52  42  69 S21       29.96S
PORT HOPE        N/A     36  34  92 SE6       29.93F WCI  31
PORT HURON     MOSUNNY   48  37  66 SW6       29.99S
TRI CITIES     CLOUDY    43  40  89 S7        29.96S
MIDLAND        FAIR      45  36  72 S6        29.94R
TROY           CLOUDY    51  40  66 SW15G23   30.00F
SAGINAW HB     CLOUDY    45  37  76 S3        29.96R
$$
MIZ043>046-050>051-056>058-064>065-071>073-077>080-241500-
SOUTHWEST LOWER MICHIGAN

CITY           SKY/WX    TMP DP  RH WIND       PRES   REMARKS
BATTLE CREEK   PTSUNNY   55  45  68 SW15G24   29.96F
BENTON HARBOR  CLOUDY    57  45  64 S10       29.94F
BIG RAPIDS     CLOUDY    48  39  71 SW9       29.91S
COLDWATER      MOSUNNY   56  45  66 SW20      29.99F
FREMONT        CLOUDY    48  40  75 SW10      29.92F
HOLLAND        CLOUDY    57  45  64 SW22G33   29.94R
GRAND RAPIDS   CLOUDY    54  44  69 CALM      29.94S
IONIA          CLOUDY    50  42  74 SW5       29.94S
KALAMAZOO      CLOUDY    57  45  64 SW20G29   29.97F
LUDINGTON      MOSUNNY   48  39  72 SW9       29.91R
MARSHALL       CLOUDY    56  45  67 SW15G22   29.97S
MOUNT PLEASANT CLOUDY    42  38  87 S5        29.92F
MUSKEGON       CLOUDY    49  40  71 S12       29.93F
SOUTH HAVEN    CLOUDY    59  47  63 SW15G23   29.93F
$$
MIZ016>042-241500-
NORTHERN LOWER MICHIGAN

CITY           SKY/WX    TMP DP  RH WIND       PRES   REMARKS
ALPENA         CLOUDY    34  33  96 S5        29.92F FOG     WCI  30
BEAVER ISLAND  LGT RAIN  36  36 100 W5        29.92R WCI  32
BELLAIRE       CLOUDY    37  36  95 CALM      29.92S FOG
CADILLAC       CLOUDY    45  38  77 SW7       29.89S
CHARLEVOIX     CLOUDY    36  36 100 CALM      29.94R FOG
FRANKFORT      CLOUDY    41  36  81 CALM      29.91R
GAYLORD        CLOUDY    35  31  85 SE3       29.88S FOG
GRAYLING       CLOUDY    37  36  93 CALM      29.90R FOG
HARBOR SPRINGS CLOUDY    33  33 100 CALM      29.92R FOG
HOUGHTON LAKE  CLOUDY    44  35  70 SW7       29.91R
MANISTEE       CLOUDY    47  38  71 SW3       29.91R
OSCODA         CLOUDY    38  35  89 SE3       29.93F
PELLSTON       LGT RAIN  33  31  92 CALM      29.93R FOG
ROGERS CITY    MIX PCPN  33  32  94 S3          N/A
TRAVERSE CITY  CLOUDY    39  37  92 CALM      29.89S FOG
$$
MIZ007>008-015-241500-
EASTERN UPPER MICHIGAN

CITY           SKY/WX    TMP DP  RH WIND       PRES   REMARKS
KINROSS        LGT SNOW  32  31  96 S6        29.94R FOG     WCI  26
MACKINAC ISLAN MIX PCPN  32  32 100 E3        29.90F VSB 3/4
NEWBERRY       LGT SNOW  32  31  97 NE3       29.89R
S. S. MARIE    LGT RAIN  33  32  96 CALM      29.91F FOG
MUNISING         N/A     34  32  92 NE6       29.90S WCI  29
$$
MIZ004>006-011>014-085-241500-
CENTRAL UPPER MICHIGAN

CITY           SKY/WX    TMP DP  RH WIND       PRES   REMARKS
MANISTIQUE     LGT SNOW  32  32 100 CALM      29.92R
ESCANABA       LGT RAIN  34  33  96 CALM      29.93S FOG
MENOMINEE        N/A    N/A N/A N/A MISG        N/A
SAWYER-GWINN   CLOUDY    32  32 100 CALM      29.91R FOG
$$
MIZ001>003-009>011-084-241500-
WESTERN UPPER MICHIGAN

CITY           SKY/WX    TMP DP  RH WIND       PRES   REMARKS
IRON MOUNTAIN  FRZ RAIN  33  30  88 S7        29.92R VSB 1   WCI  27
HOUGHTON       CLOUDY    34  31  88 NW13      29.91S FOG     WCI  25
COPPER HARBOR    N/A     34  33  96 N8        29.93R WCI  27
IRONWOOD       CLOUDY    34  33  96 NW7       29.95R FOG     WCI  28
$$

ABBREVIATIONS USED IN REMARKS
   TC - TEMPERATURE IN CELSIUS
  WCI - WIND CHILL INDEX
   HX - HEAT INDEX
  VSB - VISIBILITY





USA.gov is the U.S. government's official web portal to all federal, state and local government web resources and services.